Location: Belmont
(13.0833°N, 59.6000°W)
Time: 08:40:47
(UTC+00:00)

Okean 2 - Pass Details

Date: 17 September 2019
Orbit: 560 x 577 km, 82.5° (Epoch: 17 October)

Event Time Altitude Azimuth Distance (km) Brightness Sun altitude
Rises 22:36:59 0° 359° (N) 2,747 7.0 -10.3°
Reaches altitude 10° 22:39:09 10° 1° (N) 1,853 6.1 -10.8°
Maximum altitude 22:43:14 72° 86° (E) 597 3.3 -11.8°
Drops below altitude 10° 22:47:19 10° 170° (S) 1,862 5.9 -12.8°
Sets 22:49:30 0° 172° (S) 2,761 6.8 -13.3°
